Language: 


Des rapports , des résumés tant et plus, au choix de chacun....


Données Historiques de Météogheer
Journalier Rapport pour Novembre 13, 2017 Unitée:  Impériale    Métrique   Les deux
Suivant Jour »
Journalier Hebdomadaire Mensuel Annuel Sur mesure
  Max: Min: Moyenne:
Température: 51.6 °F 32 °F 44.4 °F
Point de rosée: 48.2 °F 41 °F 43.3 °F
Humidité: 98% 0% 94%
Vent: 17.4mph 0mph 3.9mph
Rafales: 25.1mph - -
Vent- - WNW
Pression: 30.3 in 0 in -
Pluie: 0.41 in    
Historical Graphs
 
 
Données tabulaires pour Novembre 13, 2017
Heure Température Point de rosée Pression Vent Vent Rafales Humidité Pluie Taux (Horaire) Conditions
00:03 42.4 °F 42.8 °F 29.9 in NNW 1.3 mph 9.6 mph 97% 0.05 in
00:08 42.4 °F 42.8 °F 29.9 in NNE 4 mph 9.6 mph 97% 0.03 in
00:13 42.4 °F 42.8 °F 29.9 in NNW 4.7 mph 6 mph 97% 0.03 in
00:18 42.6 °F 42.8 °F 29.9 in North 6.3 mph 6.3 mph 97% 0.02 in
00:23 43 °F 42.8 °F 29.9 in NNW 4.7 mph 8.7 mph 97% 0.01 in
00:28 43 °F 42.8 °F 29.9 in NNW 5.4 mph 8.7 mph 97% 0.01 in
00:33 43 °F 42.8 °F 29.9 in WNW 5.4 mph 8.7 mph 97% 0.01 in
00:38 43 °F 42.8 °F 29.9 in NNW 2 mph 5.4 mph 97% 0.02 in
00:43 42.8 °F 42.8 °F 29.9 in NW 2 mph 5.4 mph 97% 0.02 in
00:48 43.2 °F 42.8 °F 29.9 in North 3.1 mph 6.3 mph 97% 0.02 in
00:53 43 °F 42.8 °F 29.9 in WSW 3.4 mph 6.3 mph 97% 0.02 in
00:58 43 °F 42.8 °F 29.9 in NNW 2 mph 5.4 mph 97% 0.02 in
01:01 43.2 °F 42.8 °F 29.9 in NNW 2 mph 5.4 mph 98% 0.02 in
01:06 43.7 °F 44.6 °F 29.9 in North 5.6 mph 5.6 mph 98% 0.02 in
01:11 44.1 °F 44.6 °F 30 in WNW 12.5 mph 12.5 mph 98% 0.02 in
01:16 44.1 °F 42.8 °F 30 in North 7.6 mph 12.5 mph 97% 0.01 in
01:21 44.1 °F 42.8 °F 30 in NNE 7.4 mph 12.5 mph 93% 0.01 in
01:26 44.1 °F 42.8 °F 30 in WNW 5.8 mph 12.5 mph 92% 0.02 in
01:31 43.7 °F 42.8 °F 30 in West 3.6 mph 12.5 mph 93% 0.02 in
01:36 43.7 °F 42.8 °F 30 in NW 3.6 mph 5.8 mph 94% 0.01 in
01:41 43.7 °F 42.8 °F 30 in Calm   4 mph 94% 0.01 in
01:46 43.7 °F 42.8 °F 30 in North 2.9 mph 4 mph 96% 0.01 in
01:51 43.9 °F 42.8 °F 30 in NNW 5.8 mph 6 mph 97% 0.01 in
01:56 44.2 °F 44.6 °F 30 in WNW 7.8 mph 8.7 mph 98% 0.01 in
02:01 44.2 °F 44.6 °F 30 in NNW 7.4 mph 8.7 mph 98% 0.01 in
02:06 44.2 °F 44.6 °F 30 in NNW 6 mph 7.8 mph 98% 0.01 in
02:11 44.6 °F 44.6 °F 30 in NNW 10.5 mph 11.2 mph 98% 0.01 in
02:16 44.8 °F 44.6 °F 30 in NNW 5.4 mph 11.2 mph 98% 0.01 in
02:21 44.8 °F 44.6 °F 30 in NNE 8.1 mph 12.8 mph 98% 0.01 in
02:26 44.8 °F 44.6 °F 30 in North 3.4 mph 12.8 mph 98% 0 in
02:31 44.6 °F 44.6 °F 30 in NNW 4.9 mph 8.1 mph 98% 0 in
02:36 44.2 °F 42.8 °F 30 in NW 1.3 mph 7.4 mph 97% 0 in
02:41 44.2 °F 42.8 °F 30 in Calm   6.5 mph 97% 0 in
02:46 44.2 °F 44.6 °F 30 in NNE 3.4 mph 6.5 mph 98% 0 in
02:51 44.4 °F 44.6 °F 30 in NNW 5.4 mph 7.4 mph 98% 0 in
02:56 44.2 °F 44.6 °F 30 in NNW 6 mph 7.6 mph 98% 0 in
03:01 32 °F 42.8 °F 0 in Calm     0% 0 in
03:06 43.7 °F 42.8 °F 30 in North 7.6 mph 11.2 mph 94% 0 in
03:11 43.7 °F 42.8 °F 30 in North 8.5 mph 11.2 mph 94% 0 in
03:16 43.5 °F 42.8 °F 30 in NW 7.6 mph 10.1 mph 94% 0 in
03:21 43.3 °F 42.8 °F 30 in NW 6 mph 10.1 mph 95% 0.09 in
03:26 43.3 °F 42.8 °F 30 in WNW 10.1 mph 10.1 mph 96% 0.09 in
03:31 43.3 °F 42.8 °F 30 in North 3.8 mph 10.1 mph 97% 0.09 in
03:36 43.3 °F 42.8 °F 30 in North 6.3 mph 10.1 mph 97% 0.09 in
03:41 43.3 °F 42.8 °F 30 in West 6.5 mph 8.1 mph 97% 0.09 in
03:46 43.3 °F 42.8 °F 30 in WNW 8.7 mph 8.7 mph 97% 0.09 in
03:52 43 °F 42.8 °F 30 in NNW 5.4 mph 8.7 mph 97% 0.09 in
03:57 43.2 °F 42.8 °F 30 in North 5.8 mph 8.5 mph 97% 0.09 in
04:02 43.3 °F 42.8 °F 30 in West 5.4 mph 8.5 mph 98% 0.08 in
04:07 43.3 °F 42.8 °F 30 in NNW 4.9 mph 7.4 mph 98% 0.08 in
04:13 43.3 °F 42.8 °F 30 in North 8.5 mph 8.5 mph 98% 0.08 in
04:18 43.5 °F 42.8 °F 30 in NNE 5.4 mph 13.2 mph 98% 0 in
04:21 43.7 °F 44.6 °F 30 in North 5.6 mph 13.2 mph 98% 0 in
04:22 43.7 °F 44.6 °F 30 in North 5.6 mph 13.2 mph 98% 0 in
04:24 43.7 °F 44.6 °F 30 in NNE 4.3 mph 9.2 mph 98% 0 in
04:28 43.9 °F 44.6 °F 30 in North 7.8 mph 9.2 mph 98% 0 in
04:33 43.7 °F 44.6 °F 30 in NNW 12.8 mph 12.8 mph 98% 0 in
04:38 43.5 °F 42.8 °F 30 in ENE 6 mph 12.8 mph 98% 0 in
04:43 43.3 °F 42.8 °F 30.1 in NNE 8.5 mph 12.8 mph 98% 0 in
04:48 43.3 °F 42.8 °F 30.1 in North 4.3 mph 8.5 mph 98% 0 in
04:53 43.2 °F 42.8 °F 30.1 in North 4.3 mph 8.5 mph 98% 0 in
04:58 43 °F 42.8 °F 30.1 in NNW 2 mph 4.3 mph 98% 0 in
05:03 42.8 °F 42.8 °F 30.1 in WNW 1.6 mph 4.3 mph 98% 0 in
05:08 42.4 °F 42.8 °F 30.1 in Calm   3.6 mph 98% 0 in
05:13 42.3 °F 42.8 °F 30 in WNW 2.7 mph 3.1 mph 98% 0 in
05:18 42.1 °F 42.8 °F 30 in WNW 3.4 mph 5.4 mph 98% 0 in
05:23 42.6 °F 42.8 °F 30 in NNE 5.6 mph 5.6 mph 98% 0 in
05:28 43 °F 42.8 °F 30 in North 3.8 mph 5.6 mph 98% 0 in
05:33 43.3 °F 42.8 °F 30 in Calm   5.6 mph 98% 0 in
05:38 43.5 °F 42.8 °F 30 in North 4.9 mph 4.9 mph 98% 0 in
05:43 43.5 °F 42.8 °F 30 in NNW 1.1 mph 4.9 mph 98% 0 in
05:48 43.7 °F 44.6 °F 30 in WNW 8.1 mph 8.1 mph 98% 0 in
05:53 44.1 °F 44.6 °F 30 in NW 4.7 mph 8.1 mph 98% 0 in
05:58 44.1 °F 44.6 °F 30.1 in North 8.5 mph 8.5 mph 98% 0 in
06:03 43.9 °F 44.6 °F 30.1 in NNE 3.1 mph 8.5 mph 98% 0 in
06:08 43.5 °F 42.8 °F 30.1 in NNW 5.4 mph 8.9 mph 98% 0 in
06:13 43.3 °F 42.8 °F 30 in WNW 3.8 mph 8.9 mph 98% 0 in
06:18 43.5 °F 42.8 °F 30 in NNW 5.8 mph 8.5 mph 98% 0 in
06:23 43.7 °F 44.6 °F 30 in NNW 5.8 mph 8.5 mph 98% 0 in
06:28 43.7 °F 44.6 °F 30.1 in NNW 5.6 mph 5.8 mph 98% 0 in
06:33 43.5 °F 42.8 °F 30.1 in NNW 2.5 mph 5.8 mph 98% 0 in
06:38 43.5 °F 42.8 °F 30.1 in NE 6 mph 6 mph 98% 0 in
06:43 43.5 °F 42.8 °F 30.1 in North 3.1 mph 6 mph 98% 0 in
06:48 43.5 °F 42.8 °F 30.1 in WNW 5.6 mph 6 mph 98% 0 in
06:53 43.7 °F 44.6 °F 30.1 in NNE 4.3 mph 5.6 mph 98% 0 in
06:58 43.7 °F 44.6 °F 30.1 in WNW 2.2 mph 6.3 mph 98% 0 in
07:03 44.1 °F 44.6 °F 30.1 in NNW 10.1 mph 10.1 mph 98% 0 in
07:08 44.2 °F 44.6 °F 30.1 in NNW 6.3 mph 25.1 mph 98% 0 in
07:13 44.1 °F 44.6 °F 30.1 in North 6.3 mph 25.1 mph 98% 0 in
07:18 43.7 °F 44.6 °F 30.1 in NNW 3.1 mph 10.3 mph 98% 0 in
07:20 43.7 °F 44.6 °F 30.1 in NNW 7.2 mph 10.3 mph 98% 0 in
07:25 43.5 °F 42.8 °F 30.1 in NNW 5.4 mph 7.2 mph 97% 0.13 in
07:30 43.5 °F 42.8 °F 30.1 in North 4 mph 7.2 mph 97% 0.13 in
07:35 43.7 °F 42.8 °F 30.1 in West 3.6 mph 10.7 mph 97% 0.13 in
07:40 43.7 °F 42.8 °F 30.1 in NNE 4 mph 10.7 mph 97% 0.13 in
07:45 43.7 °F 44.6 °F 30.1 in West 5.6 mph 6.7 mph 98% 0.13 in
07:50 43.9 °F 44.6 °F 30.1 in WNW 9.4 mph 9.4 mph 98% 0.16 in
07:56 43.7 °F 44.6 °F 30.1 in West 2 mph 9.4 mph 98% 0.16 in
08:01 43.5 °F 42.8 °F 30.1 in WNW 2 mph 9.4 mph 98% 0.16 in
08:06 43.5 °F 42.8 °F 30.1 in WNW 1.3 mph 4.3 mph 98% 0.16 in
08:11 43.5 °F 42.8 °F 30.1 in NW 0.9 mph 6.5 mph 98% 0.16 in
08:16 43.9 °F 44.6 °F 30.1 in North 7.6 mph 7.6 mph 98% 0.16 in
08:21 44.1 °F 44.6 °F 30.1 in NNW 7.2 mph 10.3 mph 98% 0.16 in
08:26 44.2 °F 44.6 °F 30.1 in WNW 3.6 mph 10.3 mph 98% 0.02 in
08:31 44.1 °F 44.6 °F 30.1 in North 8.5 mph 10.5 mph 98% 0.02 in
08:36 43.7 °F 44.6 °F 30.1 in North 4 mph 10.5 mph 98% 0.05 in
08:41 43.5 °F 42.8 °F 30.1 in NW 5.4 mph 7.6 mph 98% 0.05 in
08:46 43.3 °F 42.8 °F 30.1 in Calm   7.4 mph 97% 0.02 in
08:51 43.5 °F 42.8 °F 30.1 in NNE 3.4 mph 5.8 mph 98% 0.02 in
08:56 43.5 °F 42.8 °F 30.1 in NNW 1.6 mph 3.6 mph 98% 0.02 in
09:01 43.5 °F 42.8 °F 30.1 in NNE 3.4 mph 5.8 mph 98% 0.02 in
09:06 43.7 °F 44.6 °F 30.1 in NNW 2 mph 5.8 mph 98% 0.02 in
09:11 43.9 °F 44.6 °F 30.2 in NNW 5.6 mph 5.6 mph 98% 0.02 in
09:16 44.1 °F 44.6 °F 30.2 in NNW 7.6 mph 7.6 mph 98% 0.02 in
09:21 44.6 °F 44.6 °F 30.2 in Calm   7.6 mph 98% 0.02 in
09:26 44.8 °F 44.6 °F 30.2 in NNE 3.4 mph 4.9 mph 98% 0.02 in
09:31 44.4 °F 44.6 °F 30.2 in NNE 3.1 mph 9.6 mph 97% 0.01 in
09:36 44.2 °F 42.8 °F 30.2 in NW 3.8 mph 9.6 mph 96% 0 in
09:41 44.8 °F 44.6 °F 30.1 in WNW 3.6 mph 8.1 mph 96% 0 in
09:46 44.8 °F 44.6 °F 30.1 in North 17.4 mph 17.4 mph 96% 0.01 in
09:51 44.2 °F 42.8 °F 30.1 in NNE 2 mph 17.4 mph 96% 0.01 in
09:56 43.9 °F 42.8 °F 30.2 in NNE 4.9 mph 15.4 mph 95% 0.01 in
10:01 43.7 °F 42.8 °F 30.2 in North 6 mph 10.1 mph 95% 0.01 in
10:06 44.1 °F 42.8 °F 30.2 in WNW 5.4 mph 7.6 mph 95% 0.01 in
10:11 44.2 °F 42.8 °F 30.2 in NW 3.1 mph 10.7 mph 96% 0.01 in
10:16 44.8 °F 44.6 °F 30.2 in WSW 4 mph 12.1 mph 96% 0.01 in
10:21 45 °F 44.6 °F 30.2 in WNW 6.3 mph 12.1 mph 96% 0.01 in
10:26 45.5 °F 44.6 °F 30.2 in WNW 2.7 mph 7.8 mph 97% 0.01 in
10:31 45.3 °F 44.6 °F 30.2 in NW 3.8 mph 7.8 mph 96% 0.01 in
10:36 45.3 °F 44.6 °F 30.2 in North 8.1 mph 8.1 mph 95% 0.01 in
10:41 45.9 °F 44.6 °F 30.2 in North 7.4 mph 8.1 mph 94% 0.01 in
10:46 46.2 °F 44.6 °F 30.2 in NNW 2.5 mph 8.1 mph 94% 0 in
10:51 46.8 °F 44.6 °F 30.2 in NNE 6.3 mph 7.4 mph 94% 0.01 in
10:56 47.1 °F 46.4 °F 30.2 in WNW 3.8 mph 6.3 mph 94% 0.01 in
11:01 47.3 °F 46.4 °F 30.2 in NNW 4.3 mph 10.7 mph 94% 0.01 in
11:06 47.7 °F 46.4 °F 30.2 in NW 3.1 mph 10.7 mph 94% 0.01 in
11:16 48.7 °F 48.2 °F 30.2 in NNW 9.6 mph 9.6 mph 94% 0.01 in
11:21 48.9 °F 46.4 °F 30.2 in NNE 8.1 mph 9.6 mph 92% 0.01 in
11:26 48.6 °F 46.4 °F 30.2 in NNW 9.6 mph 10.3 mph 88% 0.01 in
11:31 48 °F 44.6 °F 30.2 in North 10.1 mph 12.1 mph 86% 0.01 in
11:36 47.7 °F 44.6 °F 30.2 in NNW 4.9 mph 12.3 mph 86% 0.01 in
11:41 47.3 °F 44.6 °F 30.2 in NW 8.5 mph 12.3 mph 85% 0.01 in
11:46 47.3 °F 44.6 °F 30.2 in North 8.1 mph 10.7 mph 85% 0.01 in
11:51 47.3 °F 44.6 °F 30.2 in NNW 3.1 mph 10.7 mph 87% 0 in
11:56 47.7 °F 44.6 °F 30.2 in North 3.8 mph 8.7 mph 87% 0 in
12:01 48.2 °F 44.6 °F 30.2 in North 4.9 mph 8.7 mph 88% 0 in
12:06 48.9 °F 46.4 °F 30.2 in North 4.3 mph 6.3 mph 88% 0 in
12:11 49.8 °F 46.4 °F 30.2 in North 7.6 mph 7.6 mph 87% 0 in
12:16 49.5 °F 44.6 °F 30.2 in NW 7.8 mph 9.6 mph 84% 0 in
12:21 50 °F 44.6 °F 30.2 in NNW 10.7 mph 10.7 mph 83% 0 in
12:26 50.5 °F 46.4 °F 30.2 in North 4.3 mph 10.7 mph 83% 0 in
12:32 50.4 °F 46.4 °F 30.2 in North 4 mph 7.8 mph 83% 0 in
12:37 49.6 °F 44.6 °F 30.2 in NW 5.4 mph 11 mph 82% 0 in
12:42 49.3 °F 44.6 °F 30.2 in North 4.3 mph 11 mph 80% 0 in
12:47 49.6 °F 44.6 °F 30.2 in Calm   7.8 mph 83% 0 in
12:52 50.7 °F 46.4 °F 30.2 in NW 6.9 mph 6.9 mph 83% 0 in
12:57 51.3 °F 46.4 °F 30.2 in NNW 5.4 mph 6.9 mph 83% 0 in
13:02 51.6 °F 46.4 °F 30.2 in ENE 2.5 mph 6.9 mph 82% 0 in
13:07 51.3 °F 46.4 °F 30.2 in WSW 3.4 mph 7.8 mph 82% 0 in
13:12 50.4 °F 46.4 °F 30.2 in NW 3.6 mph 7.8 mph 83% 0 in
13:17 49.6 °F 44.6 °F 30.2 in North 3.8 mph 7.6 mph 84% 0 in
13:22 48.7 °F 44.6 °F 30.2 in NE 8.1 mph 8.1 mph 83% 0 in
13:27 47.8 °F 42.8 °F 30.2 in NNE 7.2 mph 8.1 mph 82% 0 in
13:28 47.5 °F 42.8 °F 30.2 in North 7.2 mph 8.1 mph 83% 0 in
13:33 47.1 °F 42.8 °F 30.2 in NNW 3.8 mph 8.1 mph 85% 0 in
13:38 47.1 °F 42.8 °F 30.2 in NNE 3.8 mph 7.2 mph 86% 0 in
13:43 47.3 °F 44.6 °F 30.2 in NNE 3.8 mph 3.8 mph 89% 0 in
13:48 48.6 °F 46.4 °F 30.2 in North 6.5 mph 7.2 mph 91% 0 in
13:53 49.5 °F 48.2 °F 30.2 in North 6.9 mph 7.8 mph 91% 0 in
13:58 50 °F 48.2 °F 30.2 in West 6.9 mph 7.8 mph 90% 0 in
14:03 50.2 °F 46.4 °F 30.2 in North 7.4 mph 7.4 mph 88% 0 in
14:08 50.7 °F 46.4 °F 30.2 in NNW 3.1 mph 8.7 mph 85% 0 in
14:13 50.9 °F 46.4 °F 30.2 in NNW 8.1 mph 8.7 mph 83% 0 in
14:18 50.5 °F 44.6 °F 30.2 in NNW 4.9 mph 13 mph 79% 0 in
14:23 50.7 °F 44.6 °F 30.2 in WNW 4.3 mph 13 mph 79% 0 in
14:28 50.7 °F 44.6 °F 30.2 in North 6 mph 12.5 mph 80% 0 in
14:33 50.9 °F 46.4 °F 30.2 in NNW 5.6 mph 6.3 mph 80% 0 in
14:38 50.4 °F 44.6 °F 30.2 in NW 10.5 mph 10.5 mph 79% 0 in
14:40 50 °F 42.8 °F 30.2 in NNW 5.8 mph 10.5 mph 77% 0 in
14:45 49.3 °F 42.8 °F 30.2 in North 3.6 mph 10.5 mph 77% 0 in
14:46 49.1 °F 42.8 °F 30.2 in North 3.6 mph 10.5 mph 77% 0 in
14:51 48.6 °F 42.8 °F 30.2 in West 6.3 mph 6.3 mph 76% 0 in
14:56 48 °F 42.8 °F 30.2 in North 8.9 mph 8.9 mph 78% 0 in
15:01 47.8 °F 42.8 °F 30.2 in North 4.9 mph 8.9 mph 79% 0 in
15:06 47.8 °F 42.8 °F 30.2 in North 6.5 mph 7.4 mph 82% 0 in
15:11 48 °F 42.8 °F 30.2 in NW 3.4 mph 6.5 mph 83% 0 in
15:16 48 °F 42.8 °F 30.2 in NNW 7.4 mph 10.3 mph 83% 0 in
15:21 47.8 °F 44.6 °F 30.2 in WNW 8.5 mph 10.3 mph 84% 0 in
15:26 48.4 °F 44.6 °F 30.2 in North 4 mph 8.7 mph 84% 0 in
15:31 48.7 °F 44.6 °F 30.2 in NNW 8.5 mph 8.5 mph 83% 0 in
15:37 48.4 °F 42.8 °F 30.2 in NNE 5.8 mph 8.5 mph 81% 0 in
15:42 48 °F 42.8 °F 30.2 in NNW 4.7 mph 8.5 mph 80% 0 in
15:47 47.8 °F 42.8 °F 30.2 in NNW 6.5 mph 6.5 mph 78% 0 in
15:52 47.8 °F 42.8 °F 30.2 in NNE 7.8 mph 10.7 mph 77% 0 in
15:53 47.5 °F 42.8 °F 30.2 in NNE 7.4 mph 10.7 mph 79% 0 in
15:58 46.8 °F 41 °F 30.2 in NNE 2.9 mph 10.7 mph 80% 0 in
16:03 46.4 °F 41 °F 30.2 in North 5.8 mph 9.6 mph 80% 0.01 in
16:08 46 °F 41 °F 30.2 in NNW 5.6 mph 6 mph 83% 0.02 in
16:13 45.7 °F 41 °F 30.2 in North 3.6 mph 6.5 mph 84% 0.02 in
16:18 45.3 °F 42.8 °F 30.2 in Calm   8.1 mph 87% 0.02 in
16:23 45.1 °F 42.8 °F 30.2 in NNW 4.3 mph 10.1 mph 88% 0.02 in
16:28 45 °F 42.8 °F 30.2 in NNW 3.6 mph 10.1 mph 89% 0.02 in
16:33 44.8 °F 42.8 °F 30.2 in NNW 3.6 mph 5.4 mph 90% 0.03 in
16:39 44.6 °F 42.8 °F 30.2 in NW 3.1 mph 5.6 mph 91% 0.05 in
16:44 44.6 °F 42.8 °F 30.2 in WNW 4 mph 5.6 mph 91% 0.05 in
16:49 44.4 °F 42.8 °F 30.2 in WNW 2 mph 6.5 mph 94% 0.05 in
16:54 44.4 °F 42.8 °F 30.2 in NW 3.6 mph 6.5 mph 94% 0.05 in
16:59 44.2 °F 42.8 °F 30.2 in North 4.7 mph 5.4 mph 95% 0.05 in
17:04 44.2 °F 42.8 °F 30.2 in WNW 6 mph 6.3 mph 95% 0.03 in
17:09 44.2 °F 42.8 °F 30.2 in NW 5.6 mph 8.1 mph 96% 0.02 in
17:14 44.2 °F 42.8 °F 30.2 in WNW 3.8 mph 8.5 mph 96% 0.02 in
17:19 44.2 °F 42.8 °F 30.2 in West 2 mph 8.5 mph 96% 0.02 in
17:24 44.1 °F 42.8 °F 30.2 in WNW 3.8 mph 5.8 mph 96% 0.02 in
17:29 44.1 °F 42.8 °F 30.2 in WNW 6 mph 6 mph 96% 0.01 in
17:34 44.1 °F 42.8 °F 30.2 in WNW 4 mph 6 mph 96% 0.01 in
17:39 44.1 °F 42.8 °F 30.2 in NE 6.5 mph 8.9 mph 96% 0.01 in
17:44 44.1 °F 42.8 °F 30.2 in NW 3.4 mph 8.9 mph 96% 0.01 in
17:49 43.9 °F 42.8 °F 30.2 in Calm   7.4 mph 96% 0.01 in
17:54 43.7 °F 42.8 °F 30.2 in WNW 2.5 mph 5.4 mph 96% 0.02 in
17:59 43.5 °F 42.8 °F 30.2 in WNW 2.5 mph 5.4 mph 96% 0.02 in
18:04 43.5 °F 42.8 °F 30.2 in North 5.4 mph 5.8 mph 96% 0.02 in
18:09 43.7 °F 42.8 °F 30.2 in North 2 mph 7.8 mph 96% 0.02 in
18:14 43.7 °F 42.8 °F 30.2 in WNW 0.9 mph 7.8 mph 96% 0.02 in
18:19 43.7 °F 42.8 °F 30.2 in North 2.5 mph 5.8 mph 97% 0.02 in
18:25 43.9 °F 42.8 °F 30.2 in WNW 2 mph 5.8 mph 97% 0.02 in
18:30 43.9 °F 42.8 °F 30.2 in Calm   4.9 mph 97% 0.02 in
18:35 43.7 °F 42.8 °F 30.2 in North 5.4 mph 5.4 mph 97% 0.01 in
18:40 43.7 °F 42.8 °F 30.2 in WNW 0.9 mph 6.3 mph 97% 0.01 in
18:45 43.7 °F 42.8 °F 30.2 in West 2.9 mph 6.3 mph 97% 0.01 in
18:50 43.5 °F 42.8 °F 30.2 in NNW 2.7 mph 4 mph 97% 0 in
18:55 43.5 °F 42.8 °F 30.2 in Calm   3.6 mph 97% 0 in
19:00 43.5 °F 42.8 °F 30.2 in Calm   2.2 mph 97% 0 in
19:05 43.3 °F 42.8 °F 30.2 in Calm   2.2 mph 97% 0.01 in
19:10 43.3 °F 42.8 °F 30.2 in WNW 2.5 mph 3.4 mph 97% 0.01 in
19:15 43.3 °F 42.8 °F 30.2 in Calm   3.4 mph 97% 0.01 in
19:20 43.2 °F 42.8 °F 30.2 in WNW 2.2 mph 2.5 mph 97% 0.01 in
19:25 43 °F 42.8 °F 30.2 in Calm   3.1 mph 97% 0.01 in
19:30 43 °F 42.8 °F 30.2 in Calm   3.1 mph 97% 0.01 in
19:36 42.8 °F 42.8 °F 30.2 in Calm   2.7 mph 97% 0.01 in
19:41 42.6 °F 42.8 °F 30.2 in Calm   1.1 mph 97% 0.01 in
19:46 42.4 °F 42.8 °F 30.2 in Calm   1.1 mph 97% 0.01 in
19:51 42.3 °F 42.8 °F 30.2 in Calm     97% 0.01 in
19:56 42.1 °F 42.8 °F 30.2 in Calm     97% 0.01 in
20:01 41.9 °F 42.8 °F 30.2 in Calm     97% 0.01 in
20:06 41.7 °F 41 °F 30.2 in Calm   3.4 mph 97% 0 in
20:11 41.5 °F 41 °F 30.2 in Calm   3.4 mph 97% 0 in
20:16 41.4 °F 41 °F 30.2 in Calm   2.9 mph 97% 0 in
20:22 41.2 °F 41 °F 30.2 in Calm   2.9 mph 98% 0 in
20:27 41.2 °F 41 °F 30.2 in Calm   2.7 mph 98% 0 in
20:32 41.2 °F 41 °F 30.2 in Calm   2.7 mph 98% 0 in
20:37 41.5 °F 42.8 °F 30.2 in NNW 1.3 mph 2.5 mph 98% 0 in
20:42 41.7 °F 42.8 °F 30.2 in Calm   2.5 mph 98% 0 in
20:47 41.7 °F 42.8 °F 30.2 in Calm   1.6 mph 98% 0 in
20:52 41.7 °F 42.8 °F 30.2 in Calm   3.1 mph 98% 0 in
20:57 41.7 °F 42.8 °F 30.2 in Calm   3.1 mph 98% 0 in
21:02 41.5 °F 42.8 °F 30.2 in West 1.3 mph 2.7 mph 98% 0 in
21:07 41.5 °F 42.8 °F 30.2 in Calm   2.5 mph 98% 0 in
21:12 41.5 °F 42.8 °F 30.2 in Calm   2.2 mph 98% 0 in
21:17 41.5 °F 42.8 °F 30.2 in Calm   0.9 mph 98% 0 in
21:22 41.5 °F 42.8 °F 30.2 in Calm   1.6 mph 98% 0 in
21:27 41.2 °F 41 °F 30.3 in Calm   1.6 mph 98% 0 in
21:32 40.5 °F 41 °F 30.3 in Calm     98% 0 in
21:38 40.3 °F 41 °F 30.3 in Calm     98% 0 in
21:43 40.3 °F 41 °F 30.3 in Calm     98% 0 in
21:48 40.3 °F 41 °F 30.3 in Calm     98% 0 in
21:53 40.5 °F 41 °F 30.3 in Calm     98% 0 in
21:58 40.5 °F 41 °F 30.3 in Calm     98% 0 in
22:03 40.5 °F 41 °F 30.3 in Calm     98% 0 in
22:08 40.5 °F 41 °F 30.3 in Calm     98% 0 in
22:13 40.5 °F 41 °F 30.3 in Calm     98% 0 in
22:18 41 °F 41 °F 30.3 in NE 2.9 mph 8.5 mph 98% 0 in
22:23 41.4 °F 41 °F 30.3 in Calm   8.5 mph 98% 0 in
22:28 41.7 °F 42.8 °F 30.3 in Calm   1.1 mph 98% 0 in
22:33 41.9 °F 42.8 °F 30.3 in Calm     98% 0 in
22:38 41.9 °F 42.8 °F 30.3 in Calm     98% 0 in
22:43 41.9 °F 42.8 °F 30.3 in Calm     98% 0 in
22:48 41.9 °F 42.8 °F 30.3 in Calm     98% 0 in
22:53 41.9 °F 42.8 °F 30.3 in Calm     98% 0 in
22:58 41.9 °F 42.8 °F 30.3 in Calm     98% 0 in
23:04 42.1 °F 42.8 °F 30.3 in Calm     98% 0 in
23:09 42.1 °F 42.8 °F 30.3 in Calm     98% 0 in
23:14 42.1 °F 42.8 °F 30.3 in Calm     98% 0 in
23:19 41.9 °F 42.8 °F 30.3 in Calm     98% 0 in
23:24 41.9 °F 42.8 °F 30.3 in Calm     98% 0 in
23:29 41.7 °F 42.8 °F 30.3 in Calm     98% 0 in
23:34 41.5 °F 42.8 °F 30.3 in Calm     98% 0 in
23:39 41.4 °F 41 °F 30.3 in Calm     98% 0 in
23:44 41.4 °F 41 °F 30.3 in Calm     98% 0 in
23:49 41.2 °F 41 °F 30.3 in Calm     98% 0 in
23:54 40.8 °F 41 °F 30.3 in Calm     98% 0 in
23:59 40.5 °F 41 °F 30.3 in Calm     98% 0 in
Données Historique de Météo Turbie

Mise a jour : 22/05/2018 04:04:12
Généré par Cumulus 1.9.4 (1099)